Location: Omaha
(41.2590°N, 95.9380°W)
Time: 11:51:04
(UTC-05:00)

Tiangong 1 - Pass Details

Date: 07 October 2017
Orbit: 294 x 320 km, 42.8° (Epoch: 18 October)

Event Time Altitude Azimuth Distance (km) Brightness Sun altitude
Rises 19:17:57 0° 242° (WSW) 2,037 6.1 -5.1°
Reaches altitude 10° 19:19:57 10° 238° (WSW) 1,204 4.7 -5.5°
Maximum altitude 19:22:36 52° 160° (SSE) 393 1.0 -6.0°
Drops below altitude 10° 19:25:12 10° 82° (E) 1,192 2.9 -6.5°
Enters shadow 19:25:24 - 81° (E) 1,275 3.0 -6.5°
